Time,TemperatureF,DewpointF,PressureIn,WindDirection,WindDirectionDegrees,WindSpeedMPH,WindSpeedGustMPH,Humidity,HourlyPrecipIn,Conditions,Clouds,dailyrainin,SolarRadiationWatts/m^2,SoftwareType,DateUTC
2013-06-19 00:02:00,81.0,75.0,-100.00,SSE,168,4.0,6.0,81,0.00,,,0.00,0.000000,,2013-06-19 04:02:00,
2013-06-19 00:12:00,81.0,75.0,-100.00,SSE,168,4.0,6.0,81,0.00,,,0.00,0.000000,,2013-06-19 04:12:00,
2013-06-19 00:22:00,81.0,75.0,-100.00,SSE,168,4.0,6.0,81,0.00,,,0.00,0.000000,,2013-06-19 04:22:00,
2013-06-19 00:32:00,81.0,75.0,-100.00,SSE,168,4.0,6.0,81,0.00,,,0.00,0.000000,,2013-06-19 04:32:00,
2013-06-19 01:01:00,80.0,75.0,-100.00,SE,137,2.0,6.0,85,0.00,,,0.00,0.000000,,2013-06-19 05:01:00,
2013-06-19 01:11:00,80.0,75.0,-100.00,SE,137,2.0,6.0,85,0.00,,,0.00,0.000000,,2013-06-19 05:11:00,
2013-06-19 01:23:00,80.0,75.0,-100.00,SE,137,2.0,6.0,85,0.00,,,0.00,0.000000,,2013-06-19 05:23:00,
2013-06-19 01:32:00,80.0,75.0,-100.00,SE,137,2.0,6.0,85,0.00,,,0.00,0.000000,,2013-06-19 05:32:00,
2013-06-19 02:02:00,80.0,76.0,-100.00,SSE,153,3.0,5.0,87,0.00,,,0.00,0.000000,,2013-06-19 06:02:00,
2013-06-19 02:11:00,80.0,76.0,-100.00,SSE,153,3.0,5.0,87,0.00,,,0.00,0.000000,,2013-06-19 06:11:00,
2013-06-19 02:22:00,80.0,76.0,-100.00,SSE,153,3.0,5.0,87,0.00,,,0.00,0.000000,,2013-06-19 06:22:00,
2013-06-19 02:34:00,80.0,76.0,-100.00,SSE,153,3.0,5.0,87,0.00,,,0.00,0.000000,,2013-06-19 06:34:00,
2013-06-19 03:01:00,79.0,75.0,-100.00,SSE,156,1.0,4.0,89,0.00,,,0.00,0.000000,,2013-06-19 07:01:00,
2013-06-19 03:11:00,79.0,75.0,-100.00,SSE,156,1.0,4.0,89,0.00,,,0.00,0.000000,,2013-06-19 07:11:00,
2013-06-19 03:22:00,79.0,75.0,-100.00,SSE,156,1.0,4.0,89,0.00,,,0.00,0.000000,,2013-06-19 07:22:00,
2013-06-19 03:33:00,79.0,75.0,-100.00,SSE,156,1.0,4.0,89,0.00,,,0.00,0.000000,,2013-06-19 07:33:00,
2013-06-19 04:22:00,76.0,73.0,-100.00,South,174,1.0,14.0,91,0.42,,,0.42,0.000000,,2013-06-19 08:22:00,
2013-06-19 04:34:00,76.0,73.0,-100.00,South,174,1.0,14.0,91,0.42,,,0.42,0.000000,,2013-06-19 08:34:00,
2013-06-19 05:22:00,76.0,74.0,-100.00,SSE,148,2.0,3.0,94,0.00,,,0.42,0.000000,,2013-06-19 09:22:00,
2013-06-19 05:34:00,76.0,74.0,-100.00,SSE,148,2.0,3.0,94,0.00,,,0.42,0.000000,,2013-06-19 09:34:00,
2013-06-19 06:02:00,77.0,75.0,-100.00,SSE,147,2.0,3.0,94,0.00,,,0.42,0.000000,,2013-06-19 10:02:00,
2013-06-19 06:12:00,77.0,75.0,-100.00,SSE,147,2.0,3.0,94,0.00,,,0.42,0.000000,,2013-06-19 10:12:00,
2013-06-19 06:22:00,77.0,75.0,-100.00,SSE,147,2.0,3.0,94,0.00,,,0.42,0.000000,,2013-06-19 10:22:00,
2013-06-19 06:33:00,77.0,75.0,-100.00,SSE,147,2.0,3.0,94,0.00,,,0.42,0.000000,,2013-06-19 10:33:00,
2013-06-19 07:02:00,77.0,75.0,-100.00,SE,135,2.0,3.0,95,0.00,,,0.42,1.000000,,2013-06-19 11:02:00,
2013-06-19 07:12:00,77.0,75.0,-100.00,SE,135,2.0,3.0,95,0.00,,,0.42,1.000000,,2013-06-19 11:12:00,
2013-06-19 07:22:00,77.0,75.0,-100.00,SE,135,2.0,3.0,95,0.00,,,0.42,1.000000,,2013-06-19 11:22:00,
2013-06-19 07:33:00,77.0,75.0,-100.00,SE,135,2.0,3.0,95,0.00,,,0.42,1.000000,,2013-06-19 11:33:00,
2013-06-19 08:02:00,79.0,77.0,-100.00,South,170,3.0,4.0,94,0.00,,,0.42,46.000000,,2013-06-19 12:02:00,
2013-06-19 08:12:00,79.0,77.0,-100.00,South,170,3.0,4.0,94,0.00,,,0.42,46.000000,,2013-06-19 12:12:00,
2013-06-19 08:22:00,79.0,77.0,-100.00,South,170,3.0,4.0,94,0.00,,,0.42,46.000000,,2013-06-19 12:22:00,
2013-06-19 08:34:00,79.0,77.0,-100.00,South,170,3.0,4.0,94,0.00,,,0.42,46.000000,,2013-06-19 12:34:00,
2013-06-19 09:12:00,84.0,78.0,-100.00,SSE,147,4.0,7.0,82,0.00,,,0.42,173.000000,,2013-06-19 13:12:00,
2013-06-19 09:22:00,84.0,78.0,-100.00,SSE,147,4.0,7.0,82,0.00,,,0.42,173.000000,,2013-06-19 13:22:00,
2013-06-19 09:33:00,84.0,78.0,-100.00,SSE,147,4.0,7.0,82,0.00,,,0.42,173.000000,,2013-06-19 13:33:00,
2013-06-19 10:02:00,86.0,77.0,-100.00,SE,126,5.0,10.0,74,0.00,,,0.42,345.000000,,2013-06-19 14:02:00,
2013-06-19 10:12:00,86.0,77.0,-100.00,SE,126,5.0,10.0,74,0.00,,,0.42,345.000000,,2013-06-19 14:12:00,
2013-06-19 10:22:00,86.0,77.0,-100.00,SE,126,5.0,10.0,74,0.00,,,0.42,345.000000,,2013-06-19 14:22:00,
2013-06-19 10:33:00,86.0,77.0,-100.00,SE,126,5.0,10.0,74,0.00,,,0.42,345.000000,,2013-06-19 14:33:00,
2013-06-19 11:02:00,87.0,76.0,-100.00,SE,140,6.0,12.0,70,0.00,,,0.42,413.000000,,2013-06-19 15:02:00,
2013-06-19 11:11:00,87.0,76.0,-100.00,SE,140,6.0,12.0,70,0.00,,,0.42,413.000000,,2013-06-19 15:11:00,
2013-06-19 11:22:00,87.0,76.0,-100.00,SE,140,6.0,12.0,70,0.00,,,0.42,413.000000,,2013-06-19 15:22:00,
2013-06-19 11:33:00,87.0,76.0,-100.00,SE,140,6.0,12.0,70,0.00,,,0.42,413.000000,,2013-06-19 15:33:00,
2013-06-19 12:01:00,89.0,76.0,-100.00,SE,138,6.0,14.0,66,0.00,,,0.42,661.000000,,2013-06-19 16:01:00,
2013-06-19 12:11:00,89.0,76.0,-100.00,SE,138,6.0,14.0,66,0.00,,,0.42,661.000000,,2013-06-19 16:11:00,
2013-06-19 12:22:00,89.0,76.0,-100.00,SE,138,6.0,14.0,66,0.00,,,0.42,661.000000,,2013-06-19 16:22:00,
2013-06-19 12:34:00,89.0,76.0,-100.00,SE,138,6.0,14.0,66,0.00,,,0.42,661.000000,,2013-06-19 16:34:00,
2013-06-19 13:02:00,90.0,75.0,-100.00,SE,135,6.0,13.0,62,0.00,,,0.42,821.000000,,2013-06-19 17:02:00,
2013-06-19 13:12:00,90.0,75.0,-100.00,SE,135,6.0,13.0,62,0.00,,,0.42,821.000000,,2013-06-19 17:12:00,
2013-06-19 13:22:00,90.0,75.0,-100.00,SE,135,6.0,13.0,62,0.00,,,0.42,821.000000,,2013-06-19 17:22:00,
2013-06-19 13:34:00,90.0,75.0,-100.00,SE,135,6.0,13.0,62,0.00,,,0.42,821.000000,,2013-06-19 17:34:00,
2013-06-19 14:02:00,89.0,76.0,-100.00,SE,133,6.0,11.0,65,0.00,,,0.42,755.000000,,2013-06-19 18:02:00,
2013-06-19 14:12:00,89.0,76.0,-100.00,SE,133,6.0,11.0,65,0.00,,,0.42,755.000000,,2013-06-19 18:12:00,
2013-06-19 14:24:00,89.0,76.0,-100.00,SE,133,6.0,11.0,65,0.00,,,0.42,755.000000,,2013-06-19 18:24:00,
2013-06-19 14:33:00,89.0,76.0,-100.00,SE,133,6.0,11.0,65,0.00,,,0.42,755.000000,,2013-06-19 18:33:00,
2013-06-19 15:01:00,87.0,76.0,-100.00,South,181,8.0,12.0,69,0.00,,,0.42,445.000000,,2013-06-19 19:01:00,
2013-06-19 15:12:00,87.0,76.0,-100.00,South,181,8.0,12.0,69,0.00,,,0.42,445.000000,,2013-06-19 19:12:00,
2013-06-19 15:22:00,87.0,76.0,-100.00,South,181,8.0,12.0,69,0.00,,,0.42,445.000000,,2013-06-19 19:22:00,
2013-06-19 15:32:00,87.0,76.0,-100.00,South,181,8.0,12.0,69,0.00,,,0.42,445.000000,,2013-06-19 19:32:00,
2013-06-19 16:02:00,88.0,75.0,-100.00,SSE,157,6.0,13.0,65,0.00,,,0.42,392.000000,,2013-06-19 20:02:00,
2013-06-19 16:11:00,88.0,75.0,-100.00,SSE,157,6.0,13.0,65,0.00,,,0.42,392.000000,,2013-06-19 20:11:00,
2013-06-19 16:22:00,88.0,75.0,-100.00,SSE,157,6.0,13.0,65,0.00,,,0.42,392.000000,,2013-06-19 20:22:00,
2013-06-19 16:33:00,88.0,75.0,-100.00,SSE,157,6.0,13.0,65,0.00,,,0.42,392.000000,,2013-06-19 20:33:00,
2013-06-19 17:02:00,88.0,75.0,-100.00,SE,138,5.0,12.0,65,0.00,,,0.42,433.000000,,2013-06-19 21:02:00,
2013-06-19 17:12:00,88.0,75.0,-100.00,SE,138,5.0,12.0,65,0.00,,,0.42,433.000000,,2013-06-19 21:12:00,
2013-06-19 17:22:00,88.0,75.0,-100.00,SE,138,5.0,12.0,65,0.00,,,0.42,433.000000,,2013-06-19 21:22:00,
2013-06-19 17:33:00,88.0,75.0,-100.00,SE,138,5.0,12.0,65,0.00,,,0.42,433.000000,,2013-06-19 21:33:00,
2013-06-19 18:02:00,89.0,74.0,-100.00,SE,135,5.0,11.0,62,0.00,,,0.42,438.000000,,2013-06-19 22:02:00,
2013-06-19 18:11:00,89.0,74.0,-100.00,SE,135,5.0,11.0,62,0.00,,,0.42,438.000000,,2013-06-19 22:11:00,
2013-06-19 18:22:00,89.0,74.0,-100.00,SE,135,5.0,11.0,62,0.00,,,0.42,438.000000,,2013-06-19 22:22:00,
2013-06-19 18:34:00,89.0,74.0,-100.00,SE,135,5.0,11.0,62,0.00,,,0.42,438.000000,,2013-06-19 22:34:00,
2013-06-19 19:02:00,88.0,74.0,-100.00,ESE,120,4.0,10.0,64,0.00,,,-99.99,325.000000,,2013-06-19 23:02:00,
2013-06-19 19:12:00,88.0,74.0,-100.00,ESE,120,4.0,10.0,64,0.00,,,-99.99,325.000000,,2013-06-19 23:12:00,
2013-06-19 19:23:00,88.0,74.0,-100.00,ESE,120,4.0,10.0,64,0.00,,,-99.99,325.000000,,2013-06-19 23:23:00,
2013-06-19 19:33:00,88.0,74.0,-100.00,ESE,120,4.0,10.0,64,0.00,,,-99.99,325.000000,,2013-06-19 23:33:00,
2013-06-19 20:01:00,85.0,76.0,-100.00,ESE,115,5.0,8.0,74,0.00,,,0.42,129.000000,,2013-06-20 00:01:00,
2013-06-19 20:12:00,85.0,76.0,-100.00,ESE,115,5.0,8.0,74,0.00,,,0.42,129.000000,,2013-06-20 00:12:00,
2013-06-19 20:22:00,85.0,76.0,-100.00,ESE,115,5.0,8.0,74,0.00,,,0.42,129.000000,,2013-06-20 00:22:00,
2013-06-19 20:33:00,85.0,76.0,-100.00,ESE,115,5.0,8.0,74,0.00,,,0.42,129.000000,,2013-06-20 00:33:00,
2013-06-19 21:02:00,84.0,76.0,-100.00,ESE,104,4.0,10.0,77,0.00,,,0.42,11.000000,,2013-06-20 01:02:00,
2013-06-19 21:11:00,84.0,76.0,-100.00,ESE,104,4.0,10.0,77,0.00,,,0.42,11.000000,,2013-06-20 01:11:00,
2013-06-19 21:22:00,84.0,76.0,-100.00,ESE,104,4.0,10.0,77,0.00,,,0.42,11.000000,,2013-06-20 01:22:00,
2013-06-19 21:33:00,84.0,76.0,-100.00,ESE,104,4.0,10.0,77,0.00,,,0.42,11.000000,,2013-06-20 01:33:00,
2013-06-19 22:02:00,83.0,74.0,-100.00,SE,131,6.0,12.0,74,0.00,,,0.42,0.000000,,2013-06-20 02:02:00,
2013-06-19 22:11:00,83.0,74.0,-100.00,SE,131,6.0,12.0,74,0.00,,,0.42,0.000000,,2013-06-20 02:11:00,
2013-06-19 22:24:00,83.0,74.0,-100.00,SE,131,6.0,12.0,74,0.00,,,0.42,0.000000,,2013-06-20 02:24:00,
2013-06-19 22:34:00,83.0,74.0,-100.00,SE,131,6.0,12.0,74,0.00,,,0.42,0.000000,,2013-06-20 02:34:00,
2013-06-19 23:02:00,83.0,75.0,-100.00,SE,131,5.0,9.0,77,0.00,,,0.42,0.000000,,2013-06-20 03:02:00,
2013-06-19 23:11:00,83.0,75.0,-100.00,SE,131,5.0,9.0,77,0.00,,,0.42,0.000000,,2013-06-20 03:11:00,
2013-06-19 23:22:00,83.0,75.0,-100.00,SE,131,5.0,9.0,77,0.00,,,0.42,0.000000,,2013-06-20 03:22:00,
2013-06-19 23:33:00,83.0,75.0,-100.00,SE,131,5.0,9.0,77,0.00,,,0.42,0.000000,,2013-06-20 03:33:00,